ARIANE 2 DEB, 33548

Orbit data source: Space-Track

ARIANE 2 DEB, 33548 is space debris in HEO originally from a launch on Fri, 27 Jan 1989 UTC launched from the French Guiana (FRGUI). Debris objects in space refer to the collection of defunct objects orbiting the Earth. Examples of debris include non-operational satellites, rocket bodies, and fragments generated from explosions, collisions, or faulty payload assembly.

Loading next visibility...
Identifier
33548, 1989-006AQ
Orbit
HEO
Country
Flag of FRFR
Related business
Manufacturer
EADS/LV
Mission
Spacecraft
Bus & Motor
Unknown
Mass
Unknown
Launch date (UTC)
1989-01-27 (37 years ago)
Launch vehicle
Unknown
Launch site
French Guiana (FRGUI)
Object type
Payload
Rocket body
Debris
Shape & HBR
Unknown shape, 0.2 m
Radar Cross Section
Medium (>0.1 m² and <1 m²)

Expand to show TLE details & history
Last TLE update: 20 hours ago

TLE from 20 hours ago
0 ARIANE 2 DEB
1 33548U 89006AQ  25350.03694460 -.00000001  00000-0  00000-0 0  9995
2 33548   9.9073  46.7713 6920984 132.7371 310.7745  2.22346920163909
Epoch: 2025-12-16T00:53Z
TLE epoch observation values (Epoch: 2025-12-16T00:53:12.013Z)
Latitude
Longitude
-51.60158°
Altitude
18,080.971 km
Speed
4.064 km/s
True Right ascension
03h 06m 30s
True Declination
0° 00' 00"
Sunlit
Object was in daylight at epoch
Visualization orbit readout
Latitude
Unknown
Longitude
Unknown
Altitude
Unknown
Speed
Unknown
Apparent Right ascension
Unknown
Apparent Declination
Unknown
Sunlit
N/A
Visualization observer readout
Local Sidereal Time
19:35:02
Azimuth
Unknown
Elevation
Unknown
Doppler factor
Unknown
Orbital elements
Apogee altitude
35,586.747 km
Perigee altitude
1,257.976 km
Semi-major axis
24,800.499 km
Eccentricity
0.6921
Inclination
9.9073°
RAAN
46.7713°
Arg. of periapsis
132.7371°
True anomaly
227.02325°
Mean anomaly
310.7745°
Eccentric anomaly
271.12787°
Mean motion
0.55572 °/min
Orbital period
647.81 mins
BSTAR
0
Loading maneuver chart data...
Computing Atmospheric mass density...
Loading historical data...
Loading historical data...
Loading historical data...
Loading historical data...
Loading historical data...
Loading historical data...
Loading historical data...

Documentation

Showing up to 5 results
|